Reflectivity
-20 -20 -20 -20 -18 19 15 -0 -20 -20 -20 -20 -20 -20 -20 -20 -20 -20 -20 -20 -20 -20 -20 -20 -20 -20 -20 -20 -20 -20 -20 -20 -20 -20 -20 -20 -20 -20 -20 -20 -20 -20 -20
-20 -20 -20 -20 -4 6 -16 -20 -20 -20 -20 -20 -20 -20 -20 -20 -20 -20 -20 -20 -20 -20 -20 -20 -20 -20 -20 -20 -20 -20 -20 -20 -20 -20 -20 -20 -20 -20 -20 -19 -20 -20 -20
-20 -20 -20 -1 -3 -20 -20 -20 -20 -20 -20 -20 -20 -20 -20 -20 -20 -20 -20 -20 -20 -20 -20 -20 -20 -20 -20 -20 -20 -20 -20 -20 -8 6 -10 -20 -18 -20 -19 -20 -20 -20 -20
-20 -15 -9 -20 -20 -20 -20 -20 -20 -20 -20 -20 -20 -20 -20 -20 -20 -20 -20 -20 -20 -20 -20 -20 -20 -20 -20 -20 -20 -20 -20 -14 -15 -5 3 -3 11 4 -20 -20 -20 -20 -20
14 8 -20 -20 -20 -20 -20 -20 -20 -20 -20 -20 -20 -20 -20 -20 -20 -20 -20 -20 -20 -20 -20 -20 -20 -20 -20 -20 -20 -9 -4 -2 7 9 12 15 -20 -20 -20 -20 -6 -8 -8
11 -14 -20 -20 -20 -20 -20 -20 -20 -20 -20 -20 -20 -20 -20 -20 -20 -20 -20 -20 -20 -20 -20 -20 -20 -20 -20 -20 -2 -20 -0 12 13 19 12 7 -20 -20 -20 -1 4 11 -0
14 -14 -20 -20 -20 -20 -20 -20 -20 -20 -20 -20 -20 -20 -20 -20 -20 -20 -20 -20 -20 -20 -20 -20 -20 -20 -20 -20 -20 -15 7 10 13 9 6 -20 -20 -20 -11 10 10 7 8
-20 -20 -20 -20 -20 -20 -20 -20 -20 -20 -20 -20 -20 -20 -20 -20 -20 -20 -20 -20 -20 -20 -20 -20 -20 -20 -20 -11 -1 10 13 3 -18 -20 -20 -20 -4 8 8 1 6 1 -1
-20 -20 -20 -20 -20 -20 -20 -20 -20 -20 -20 -20 -20 -20 -20 -20 -20 -20 -20 -20 -20 -20 -20 -20 -20 -20 -7 6 -5 13 -4 -20 -20 -20 -17 5 5 -16 -14 1 7 9 -20
-18 -8 -20 -20 -20 -20 -19 2 -20 -20 -20 -20 -20 -20 -20 -20 -20 -20 -20 -20 -20 -20 -20 -20 -20 -19 -20 7 4 -0 -0 -20 -19 -14 4 -20 -20 -20 -20 -11 4 9 -20
-20 -20 -20 -20 -18 6 -17 -20 -20 -20 -20 -20 -20 -20 -20 -20 -20 -20 -20 -20 -20 -20 -20 -20 -20 -20 5 2 2 -11 -20 -1 8 -10 -20 -20 -20 -20 -20 -17 -15 8 6
-20 -20 -20 -20 -20 -20 -20 -20 -20 -20 -20 -20 -20 -20 -20 -20 -20 -20 -20 -20 -17 -20 -20 -20 -20 -5 -12 -14 -20 -20 0 -1 -20 -20 -20 -20 -10 -10 -15 -5 -9 2 4
-20 -20 -20 -20 -20 -20 -20 -20 -20 -20 -20 -20 -20 -20 -20 -20 -20 -20 -20 -20 -20 -12 -3 1 2 -19 -20 -20 -20 -20 -20 -20 -20 -7 2 1 1 1 2 2 -0 1 1
-20 -20 -20 -20 -20 -20 -20 -20 -20 -20 -20 -20 -20 -20 -20 -20 -20 -20 -20 -20 -20 0 1 -2 -20 -20 -20 -20 -20 -20 -20 -20 -20 -4 3 1 1 3 -13 2 5 -2 -5
-20 -20 -20 -20 -20 -20 -20 -20 -20 -20 -20 -20 -20 -20 -20 -20 -20 -20 -5 -14 4 1 1 -20 -20 -20 -20 -20 -20 -20 -20 -20 -20 -13 3 -12 -12 0 -20 -0 -1 4 -2
-20 -20 -20 -20 -20 -20 -20 -20 -20 -20 -20 -20 -20 -20 -20 -20 -20 -14 -2 2 -1 -11 -20 -20 -20 -20 -20 -20 -20 -20 -20 -20 -20 -1 -19 1 -20 -5 -12 -7 -0 3 -20
-20 -20 -20 -20 -20 -20 -20 -20 -20 -20 -20 -20 -20 -20 -20 -20 -20 -20 0 -7 -20 -20 -20 -20 -20 -20 -20 -20 -20 -17 -3 -20 -9 1 -16 -12 -20 3 -16 -20 -20 -20 -20
-20 -20 -20 -20 -20 -20 -20 -20 -20 -20 -20 -20 -20 -20 -20 -20 -20 -3 -9 -20 -20 -20 -20 -20 -20 -20 -20 -20 -18 -2 -20 -20 -20 -14 -5 -20 -20 -4 -20 -20 -20 -20 -8
-20 -20 -20 -20 -20 -20 -20 -20 -20 -20 -20 -20 -20 -20 -20 -20 -20 -20 -20 -20 -20 -20 -20 -20 -20 -20 -20 -17 -15 -19 -20 -19 -0 0 -20 -20 -20 -9 -20 -20 -20 -20 -1
-20 -20 -20 -20 -20 -20 -20 -20 -20 -20 -20 -20 -20 -20 -20 -20 -20 -20 -20 -20 -20 -20 -20 -20 -20 -20 -20 -20 -20 -20 -20 -20 -20 -20 -20 -20 -20 -18 -8 -20 -20 -20 -20
-20 -20 -20 -20 -20 -20 -20 -20 -20 -20 -20 -20 -20 -20 -20 -20 -20 -20 -20 -20 -20 -20 -20 -20 -20 -20 -20 -20 -20 -20 -20 -20 -20 -20 -20 -7 -19 -11 -20 -20 -20 -19 -14
-20 -20 -20 -20 -20 -20 -20 -20 -20 -20 -20 -20 -20 -20 -20 -20 -20 -20 -20 -20 -20 -20 -20 -20 -20 -20 -20 -20 -18 -20 -20 -20 -20 -20 -20 3 -1 -16 -20 -20 -20 7 -19
-20 -20 -20 -20 -20 -20 -20 -20 -20 -20 -20 -20 -20 -20 -20 -20 -20 -20 -20 -20 -20 -20 -20 -20 -20 -20 -20 -20 -10 6 2 -20 -19 -8 -0 -16 -20 -18 -3 10 11 -2 -15
-20 -20 -20 -20 -20 -20 -20 -20 -20 -20 -20 -20 -20 -20 -20 -20 -20 -20 -20 -20 -20 -20 -20 -20 -19 -17 -16 -18 -19 -20 -13 7 5 -2 18 20 11 6 3 10 -11 -20 -20
-20 -20 -20 -20 -20 -20 -20 -20 -20 -20 -20 -20 -20 -20 -20 -20 -20 -20 -20 -20 -20 -20 -20 -20 -18 -16 -16 -18 -19 -17 2 -12 12 18 6 10 -2 -20 7 8 -20 -20 -20
-20 -20 -20 -20 -20 -20 -20 -20 -20 -20 -20 -20 -20 -20 -20 -20 -20 -20 -20 -20 -20 -20 -20 -20 -20 -16 -17 -18 -19 -17 -14 1 8 -20 -20 -20 -20 2 1 -20 -20 -20 -20
Wind_Speed
16 17 19 15 15 13 13 13 12 12 11 10 8 7 5 4 2 0 1 2 5 5 5 6 8 8 7 8 8 9 10 11 15 13 14 15 18 17 16 15 15 17 16
17 19 17 16 14 15 14 13 12 12 10 9 7 6 5 3 0 2 3 4 5 6 7 7 9 7 10 10 8 11 11 13 13 21 16 14 17 18 17 16 14 15 16
18 17 16 17 16 15 14 13 12 11 10 8 6 5 4 2 1 3 4 6 6 7 7 9 10 10 11 9 11 11 11 11 12 13 16 13 14 12 14 15 16 15 13
16 16 16 17 16 14 14 12 11 10 9 7 6 4 3 1 2 4 6 7 8 8 8 9 11 11 11 12 12 14 13 13 14 13 13 14 12 13 13 13 12 12 12
16 15 16 16 15 14 13 12 10 9 7 6 5 3 1 2 2 6 7 8 9 10 10 10 10 12 17 16 11 14 15 13 12 13 13 12 14 14 15 13 13 13 14
15 15 16 16 14 13 12 11 9 8 7 5 4 2 3 2 5 7 9 9 9 10 11 11 11 14 14 18 20 22 19 15 15 12 12 15 18 15 14 13 14 13 17
16 16 15 15 14 12 11 10 8 7 5 5 3 1 3 4 6 8 11 9 9 10 11 12 12 10 14 14 17 23 21 23 21 18 17 17 17 17 16 17 16 16 15
16 15 14 13 13 11 10 8 7 5 4 3 1 3 4 4 6 10 12 11 9 11 12 13 13 14 14 16 17 14 13 17 16 13 16 17 16 16 16 16 17 19 16
15 14 13 13 12 10 9 7 5 4 3 2 2 4 5 5 5 11 12 10 10 11 11 13 12 14 17 23 16 15 19 17 16 21 23 27 26 28 21 11 12 12 15
14 13 12 11 10 9 8 6 4 3 2 1 3 4 4 6 7 10 11 8 10 9 12 13 17 15 21 23 17 17 16 17 15 17 16 17 18 16 20 13 9 11 13
13 11 10 10 9 8 7 5 4 3 2 3 4 5 5 5 8 11 13 10 9 10 11 11 11 20 24 25 24 16 16 18 19 15 13 12 12 12 11 11 11 10 12
12 11 10 9 6 6 6 5 4 2 3 4 5 5 4 6 7 10 13 14 15 12 13 11 13 23 25 25 20 20 22 20 11 11 11 11 11 10 10 11 14 13 12
11 11 10 9 7 5 5 4 1 2 3 4 5 6 7 7 7 11 13 16 17 13 9 16 25 23 23 17 18 21 18 9 10 10 11 11 10 11 14 13 13 14 15
12 11 9 8 6 5 3 2 1 2 3 4 5 6 7 8 8 8 10 11 15 11 15 12 16 17 17 16 13 11 9 9 10 10 10 11 11 11 11 10 11 11 12
11 9 7 5 5 4 2 2 3 2 3 6 6 7 8 9 9 14 14 11 11 13 16 11 10 10 10 10 9 10 10 10 10 10 10 11 11 11 11 10 10 10 11
10 6 5 4 3 2 2 2 3 3 6 6 9 8 8 13 16 18 19 20 20 20 11 9 9 9 10 10 11 11 11 12 10 10 11 10 11 11 11 11 10 10 12
9 7 5 3 3 3 2 3 4 2 4 5 8 11 13 14 16 17 18 19 18 14 7 8 9 9 10 10 10 10 11 11 12 10 10 11 11 10 14 11 11 10 11
9 8 4 3 2 1 2 3 4 5 8 8 8 11 12 15 17 17 17 16 8 7 7 8 9 9 10 10 10 11 11 11 10 10 11 11 10 10 11 11 10 11 11
6 4 3 2 2 2 2 3 4 6 6 7 8 9 11 16 19 16 14 7 8 9 8 9 9 10 10 10 10 10 11 11 12 11 10 10 10 10 11 10 11 18 18
6 6 3 2 2 3 3 4 5 6 7 7 8 8 9 12 10 10 8 8 8 8 9 10 10 10 10 10 10 10 11 11 11 10 10 10 10 10 10 11 11 11 11
3 3 4 2 3 3 3 4 5 6 7 7 8 8 16 11 9 9 9 9 9 9 10 10 10 10 10 10 10 10 11 11 11 11 10 10 11 11 10 10 10 10 11
3 3 3 3 3 3 4 5 5 6 7 8 8 9 15 8 8 9 9 9 9 9 9 10 10 10 10 10 10 11 11 12 11 10 11 11 11 11 11 10 10 9 9
3 3 2 2 3 4 4 4 5 6 7 8 8 9 9 8 9 9 10 10 9 10 10 10 10 11 10 10 10 10 11 12 11 11 12 12 12 11 10 8 8 9 9
3 3 2 3 3 4 4 6 6 7 8 8 8 8 9 9 10 10 10 10 10 10 10 10 10 14 13 12 11 10 11 11 10 13 18 12 9 10 8 7 8 9 8
2 2 3 3 4 4 5 5 6 6 7 7 8 8 9 9 10 10 10 9 10 10 12 12 10 13 15 18 18 19 18 26 22 19 8 9 10 11 8 6 8 8 8
2 3 3 3 4 5 5 6 6 7 7 8 8 9 9 9 9 10 10 10 10 11 14 10 13 17 18 14 16 21 28 28 17 17 8 6 8 7 7 7 10 8 9
Wind_Direction
143 137 132 124 123 124 133 133 131 129 132 130 131 134 131 133 139 233 337 307 313 304 296 299 300 299 295 296 295 291 289 288 289 295 299 305 302 296 300 301 304 294 286
136 130 123 122 127 132 134 128 132 129 127 127 129 130 129 122 28 340 328 312 300 301 302 298 299 302 299 299 296 295 293 292 291 295 301 297 300 301 303 296 286 299 296
129 124 120 130 134 130 128 128 128 127 125 124 128 129 122 102 337 337 315 301 297 295 296 298 301 302 299 303 301 297 293 292 293 288 292 298 294 308 291 309 296 295 297
122 124 127 131 129 128 126 126 126 126 126 124 120 117 110 46 341 316 305 297 297 294 295 292 298 297 297 302 296 298 299 296 289 293 291 297 299 305 302 301 303 303 299
119 119 124 123 122 122 123 123 123 122 119 119 125 123 80 360 344 322 306 302 297 298 297 294 293 297 296 295 297 295 302 299 294 290 288 299 306 305 306 311 299 302 298
115 119 122 122 124 123 125 125 122 122 124 132 127 80 6 319 342 310 310 305 298 296 298 300 299 299 296 296 300 298 296 290 287 295 305 294 299 308 305 306 304 301 304
120 123 123 124 124 125 127 125 126 127 138 125 94 22 321 326 327 319 314 301 302 300 300 302 303 303 303 302 299 293 295 300 294 292 293 298 300 303 306 295 304 295 294
126 124 124 125 124 127 127 125 128 138 122 94 48 348 320 329 322 317 317 300 298 299 301 303 304 304 306 305 304 302 299 289 296 301 296 296 294 293 294 301 301 296 287
125 124 126 128 129 132 127 131 132 129 113 65 347 325 325 311 324 320 318 309 303 299 301 302 304 301 302 310 311 303 304 305 302 302 298 292 293 299 297 297 291 298 295
126 125 126 126 127 125 132 133 116 95 78 1 331 307 313 308 316 317 318 311 305 310 310 307 307 306 312 312 311 313 306 307 314 297 296 305 299 296 297 288 291 290 294
119 114 109 112 119 130 124 115 112 89 16 333 310 310 303 315 319 322 321 311 314 315 310 311 310 317 310 320 315 309 306 306 306 305 305 302 303 301 302 302 294 284 287
107 106 114 122 122 124 120 114 90 38 330 327 323 318 321 321 316 318 321 319 317 312 311 311 314 312 319 314 313 308 306 312 303 303 301 301 303 301 296 298 292 282 271
113 120 124 123 117 109 105 100 97 2 341 331 329 324 323 326 322 324 319 315 315 313 308 306 313 317 316 313 313 310 310 304 303 303 298 297 298 298 296 290 288 288 283
125 127 126 118 112 104 100 83 15 356 341 331 321 318 320 321 324 331 322 321 316 319 315 311 314 312 309 307 310 310 309 307 303 300 297 298 296 298 296 297 298 301 295
122 118 112 108 104 110 88 26 0 8 324 323 324 322 319 317 324 317 319 315 318 318 324 311 311 314 314 312 314 313 312 314 312 305 301 301 302 301 301 302 296 298 296
118 117 110 113 106 71 31 358 181 295 312 314 322 316 315 312 317 321 315 317 324 324 313 308 313 313 313 317 317 316 312 309 306 305 300 298 300 301 299 302 302 297 299
116 119 115 105 76 43 0 337 329 318 276 287 316 329 325 320 324 318 321 329 323 322 313 317 310 312 312 310 308 306 305 306 306 298 299 297 296 298 306 300 301 298 299
106 100 95 84 77 26 359 344 335 331 325 329 337 332 326 326 323 323 335 325 322 328 318 312 308 310 310 308 306 305 305 304 304 301 297 299 297 294 298 298 299 300 300
103 100 105 109 81 28 355 339 328 323 323 320 321 325 338 327 325 333 338 325 323 319 316 310 308 308 306 304 302 300 298 297 299 301 296 294 295 295 293 295 294 302 305
103 110 102 93 61 14 357 338 330 327 322 320 322 328 330 330 330 332 330 324 318 314 314 310 309 306 303 300 298 297 298 298 299 297 295 295 293 292 292 294 294 299 300
112 96 79 69 35 2 338 332 326 320 318 317 317 324 329 328 323 319 322 319 315 314 311 309 306 301 296 295 296 296 295 294 294 293 292 292 294 294 292 290 291 294 301
99 89 63 41 359 336 336 330 322 320 316 317 319 321 328 322 319 317 318 315 313 311 307 304 300 296 295 293 294 293 293 293 292 292 290 289 290 290 291 291 292 300 320
90 80 57 19 348 334 326 323 316 316 317 318 320 319 322 321 318 318 315 313 314 312 308 303 297 293 292 292 290 286 285 285 287 288 285 288 288 287 287 295 312 322 329
82 63 22 359 341 331 321 318 319 317 316 317 316 316 315 315 314 315 312 313 312 309 304 299 293 292 295 296 295 292 284 281 282 280 281 279 299 312 315 311 324 324 323
62 29 0 341 326 321 318 317 313 314 315 313 311 312 313 312 312 313 313 312 309 305 304 302 296 296 297 300 298 296 294 301 301 303 314 311 316 319 318 332 336 330 338
38 359 329 318 317 316 313 312 310 312 311 310 306 310 310 308 308 311 311 309 310 308 305 298 301 303 303 304 301 303 311 317 329 343 337 325 327 336 347 348 352 349 347